Lubbock, TX

10:08 PM CST on November 19, 2019 (GMT -0600)
Lubbock International

Weather History for KLBB - September, 2019

Change the Weather History Date:

Monday, September 23, 2019

  Actual Average Record
Temperature  
Mean Temperature 74 °F 69 °F  
Max Temperature 84 °F 82 °F 98 °F (1926)
Min Temperature 64 °F 56 °F 41 °F (2009)
Degree Days  
Heating Degree Days 0 1  
Month to date heating degree days 0 10  
Since 1 July heating degree days 0 10  
Cooling Degree Days 9 5  
Month to date cooling degree days 292 191  
Year to date cooling degree days 2010 1717  
Growing Degree Days 24 (Base 50)    
Moisture  
Dew Point 67 °F    
Average Humidity 82    
Maximum Humidity 100    
Minimum Humidity 58    
Precipitation  
Precipitation 0.07 in 0.08 in 2.56 in (1986)
Month to date precipitation 4.67 1.97  
Year to date precipitation 20.26 15.04  
Snow  
Snow 0.00 in 0.00 in 0.00 in (2002)
Month to date snowfall 0.0 0.0  
Since 1 July snowfall 0.0 0.0  
Since 1 September snowfall 0.0 0.0  
Snow Depth 0.00 in    
Sea Level Pressure  
Sea Level Pressure 29.98 in    
Wind  
Wind Speed 8 mph ()    
Max Wind Speed 24 mph    
Max Gust Speed 30 mph    
Visibility 8.6 miles    
Events Rain , Thunderstorm    
T = Trace of Precipitation, MM = Missing Value Source: Averaged Metar Reports

Daily Weather History Graph

Daily Weather History Graph

Search for Another Location

Airport or City:

Astronomy

Sep. 23, 2019 Rise Set
Actual Time 7:35 AM CDT 7:42 PM CDT
Civil Twilight 7:11 AM CDT 8:07 PM CDT
Nautical Twilight 6:42 AM CDT 8:36 PM CDT
Astronomical Twilight 6:12 AM CDT 9:05 PM CDT
Moon 1:39 AM CDT (9/23) 4:20 PM CDT (9/23)
Length of Visible Light 12h 56m
Length of Day
12h 06m
Waning Crescent, 33% of the Moon is Illuminated
Sep 23
Waning Crescent
Sep 28
New
Oct 5
First Quarter
Oct 13
Full
Oct 21
Last Quarter

Hourly Weather History & Observations

Time (CDT) Temp. Heat Index Dew Point Humidity Pressure Visibility Wind Dir Wind Speed Gust Speed Precip Events Conditions
12:53 AM 66.9 °F - 63.0 °F 87% 29.95 in 10.0 mi East 6.9 mph - N/A   Partly Cloudy
1:53 AM 66.9 °F - 64.0 °F 90% 29.95 in 10.0 mi SSE 9.2 mph - N/A   Scattered Clouds
2:53 AM 66.0 °F - 63.0 °F 90% 29.95 in 9.0 mi East 4.6 mph - N/A   Mostly Cloudy
3:53 AM 64.9 °F - 63.0 °F 93% 29.96 in 8.0 mi East 4.6 mph - N/A   Scattered Clouds
4:53 AM 64.9 °F - 63.0 °F 93% 29.95 in 7.0 mi ENE 5.8 mph - N/A   Partly Cloudy
5:53 AM 64.0 °F - 62.1 °F 93% 29.96 in 6.0 mi NE 6.9 mph - N/A   Partly Cloudy
6:53 AM 64.0 °F - 62.1 °F 93% 29.97 in 7.0 mi ENE 6.9 mph - N/A   Scattered Clouds
7:53 AM 64.9 °F - 64.0 °F 97% 30.01 in 5.0 mi SE 6.9 mph - N/A   Mostly Cloudy
8:53 AM 68.0 °F - 66.0 °F 93% 30.01 in 5.0 mi SE 4.6 mph - N/A   Scattered Clouds
9:53 AM 73.0 °F - 68.0 °F 84% 30.01 in 7.0 mi SSE 8.1 mph - N/A   Scattered Clouds
10:53 AM 77.0 °F - 68.0 °F 74% 30.01 in 9.0 mi South 6.9 mph - N/A   Partly Cloudy
11:53 AM 79.0 °F - 68.0 °F 69% 30.00 in 10.0 mi SSE 10.4 mph - N/A   Partly Cloudy
12:53 PM 82.0 °F 84.5 °F 66.9 °F 60% 29.98 in 10.0 mi North - - N/A   Scattered Clouds
1:53 PM 82.0 °F 84.1 °F 66.0 °F 58% 29.96 in 10.0 mi SSW 10.4 mph - N/A   Mostly Cloudy
2:53 PM 82.0 °F 84.1 °F 66.0 °F 58% 29.94 in 10.0 mi SSW 5.8 mph - N/A   Mostly Cloudy
3:23 PM 75.0 °F - 68.0 °F 79% 30.07 in 8.0 mi SSW 20.7 mph 24.2 mph 0.00 in Rain , Thunderstorm Light Thunderstorms and Rain
3:42 PM 75.0 °F - 68.0 °F 79% 30.06 in 7.0 mi SSE 11.5 mph - 0.02 in Rain , Thunderstorm Light Thunderstorms and Rain
3:53 PM 75.0 °F - 69.1 °F 82% 29.93 in 9.0 mi SE 6.9 mph - 0.03 in Rain , Thunderstorm Light Thunderstorms and Rain
4:10 PM 78.1 °F - 69.1 °F 74% 30.05 in 10.0 mi Calm Calm - 0.00 in   Mostly Cloudy
4:23 PM 79.0 °F - 70.0 °F 74% 30.04 in 10.0 mi South 9.2 mph - 0.00 in Thunderstorm Thunderstorm
4:44 PM 78.1 °F - 69.1 °F 74% 30.05 in 10.0 mi ESE 10.4 mph - 0.00 in Thunderstorm Thunderstorm
4:53 PM 79.0 °F - 69.1 °F 72% 29.92 in 10.0 mi ESE 13.8 mph - 0.00 in Thunderstorm Thunderstorm
5:44 PM 73.9 °F - 68.0 °F 82% 30.04 in 2.0 mi ESE 11.5 mph - 0.00 in Rain , Thunderstorm Thunderstorms and Rain
5:53 PM 73.0 °F - 69.1 °F 87% 29.91 in 8.0 mi East 10.4 mph - 0.04 in Rain , Thunderstorm Light Thunderstorms and Rain
6:01 PM 73.9 °F - 70.0 °F 87% 30.03 in 10.0 mi SE 8.1 mph - 0.00 in   Mostly Cloudy
6:45 PM 75.9 °F - 66.9 °F 74% 30.03 in 10.0 mi SE 9.2 mph - 0.00 in Thunderstorm Thunderstorm
6:53 PM 75.9 °F - 66.9 °F 74% 29.92 in 10.0 mi SSE 21.9 mph 28.8 mph 0.00 in Thunderstorm Thunderstorm
7:12 PM 72.0 °F - 66.0 °F 81% 30.05 in 10.0 mi SSE 20.7 mph - N/A   Mostly Cloudy
7:53 PM 71.1 °F - 66.0 °F 84% 29.92 in 10.0 mi SE 11.5 mph - N/A   Mostly Cloudy
8:53 PM 70.0 °F - 66.0 °F 87% 29.91 in 10.0 mi SSE 10.4 mph - N/A   Scattered Clouds
9:53 PM 69.1 °F - 66.0 °F 90% 29.92 in 10.0 mi ESE 9.2 mph - N/A   Partly Cloudy
10:53 PM 69.1 °F - 66.9 °F 93% 29.92 in 10.0 mi SE 8.1 mph - N/A   Partly Cloudy
11:53 PM 70.0 °F - 68.0 °F 93% 29.91 in 8.0 mi SE 15.0 mph - N/A   Overcast